,,,PA_Meas_PMT16A,,PR_Meas_QMR101_102,,RH_Meas_QMH101,,SR_Meas_QMS101,,TA_Meas_QMH101,,GenWind,,GenWind,
date,time,status,PA,status,PR,status,RH,status,SR,status,TA,status,DirAvg,status,SpdAvg,
2008-10-25, 00:00:04,VALID,1004.65,VALID,0,VALID,95.3076,VALID,0,VALID,24.4628,VALID,75,VALID,0.254297,
2008-10-25, 00:01:04,VALID,1004.66,VALID,0,VALID,95.3305,VALID,0.100563,VALID,24.4628,VALID,75,VALID,0.419531,
2008-10-25, 00:02:04,VALID,1004.63,VALID,0,VALID,95.3381,VALID,0,VALID,24.4628,VALID,75,VALID,0.272266,
2008-10-25, 00:03:04,VALID,1004.62,VALID,0,VALID,95.2923,VALID,0,VALID,24.4433,VALID,74,VALID,0.334766,
2008-10-25, 00:04:04,VALID,1004.61,VALID,0,VALID,95.3305,VALID,0,VALID,24.4628,VALID,13,VALID,0.383203,
2008-10-25, 00:05:04,VALID,1004.56,VALID,0,VALID,95.3839,VALID,0,VALID,24.4822,VALID,13,VALID,0.332422,
2008-10-25, 00:06:04,VALID,1004.55,VALID,0,VALID,95.3991,VALID,0,VALID,24.5017,VALID,13,VALID,0.176563,
2008-10-25, 00:07:04,VALID,1004.53,VALID,0,VALID,95.3763,VALID,0,VALID,24.5017,VALID,9,VALID,0.535937,
2008-10-25, 00:08:04,VALID,1004.49,VALID,0,VALID,95.361,VALID,0,VALID,24.5017,VALID,350,VALID,0.669922,
2008-10-25, 00:09:04,VALID,1004.45,VALID,0,VALID,95.4068,VALID,0,VALID,24.5425,VALID,351,VALID,0.661719,
2008-10-25, 00:10:04,VALID,1004.44,VALID,0,VALID,95.6662,VALID,0,VALID,24.5406,VALID,342,VALID,0.860156,
2008-10-25, 00:11:04,VALID,1004.42,VALID,0,VALID,95.6585,VALID,0,VALID,24.6204,VALID,344,VALID,0.562891,
2008-10-25, 00:12:04,VALID,1004.41,VALID,0,VALID,95.567,VALID,0,VALID,24.5796,VALID,344,VALID,0.434766,
2008-10-25, 00:13:04,VALID,1004.39,VALID,0,VALID,95.5288,VALID,0,VALID,24.5601,VALID,344,VALID,0.41875,
2008-10-25, 00:14:04,VALID,1004.38,VALID,0,VALID,95.5365,VALID,0,VALID,24.5406,VALID,344,VALID,0.407422,
2008-10-25, 00:15:04,VALID,1004.4,VALID,0,VALID,95.506,VALID,0,VALID,24.5212,VALID,344,VALID,0.31875,
2008-10-25, 00:16:04,VALID,1004.34,VALID,0,VALID,95.4449,VALID,0,VALID,24.4822,VALID,344,VALID,0.229297,
2008-10-25, 00:17:04,VALID,1004.32,VALID,0,VALID,95.422,VALID,0,VALID,24.4841,VALID,344,VALID,0.308203,
2008-10-25, 00:18:04,VALID,1004.3,VALID,0,VALID,95.4678,VALID,0,VALID,24.4433,VALID,344,VALID,0,
2008-10-25, 00:19:04,VALID,1004.28,VALID,0,VALID,95.4449,VALID,0,VALID,24.4646,VALID,344,VALID,0,
2008-10-25, 00:20:04,VALID,1004.26,VALID,0,VALID,95.4831,VALID,0,VALID,24.4238,VALID,344,VALID,0,
2008-10-25, 00:21:04,VALID,1004.24,VALID,0,VALID,95.6128,VALID,0.100563,VALID,24.4628,VALID,344,VALID,0.382422,
2008-10-25, 00:22:04,VALID,1004.24,VALID,0,VALID,95.6509,VALID,0.100563,VALID,24.4822,VALID,343,VALID,0.528516,
2008-10-25, 00:23:04,VALID,1004.21,VALID,0,VALID,95.6356,VALID,0.100563,VALID,24.4822,VALID,342,VALID,0.1625,
2008-10-25, 00:24:04,VALID,1004.2,VALID,0,VALID,95.6128,VALID,0,VALID,24.523,VALID,342,VALID,0.0273438,
2008-10-25, 00:25:04,VALID,1004.19,VALID,0,VALID,95.6204,VALID,0.100563,VALID,24.5212,VALID,342,VALID,0.250781,
2008-10-25, 00:26:04,VALID,1004.17,VALID,0,VALID,95.6204,VALID,0,VALID,24.4998,VALID,342,VALID,0.0476562,
2008-10-25, 00:27:04,VALID,1004.15,VALID,0,VALID,95.5975,VALID,0,VALID,24.5212,VALID,342,VALID,0.290234,
2008-10-25, 00:28:04,VALID,1004.12,VALID,0,VALID,95.5822,VALID,0,VALID,24.5017,VALID,342,VALID,0.433594,
2008-10-25, 00:29:04,VALID,1004.12,VALID,0,VALID,95.5441,VALID,0,VALID,24.4822,VALID,342,VALID,0.390625,
2008-10-25, 00:30:04,VALID,1004.08,VALID,0,VALID,95.4907,VALID,0.100563,VALID,24.4628,VALID,342,VALID,0.380859,
2008-10-25, 00:31:04,VALID,1004.08,VALID,0,VALID,95.4678,VALID,0,VALID,24.4257,VALID,342,VALID,0.428125,
2008-10-25, 00:32:04,VALID,1004.08,VALID,0,VALID,95.4678,VALID,0,VALID,24.4062,VALID,342,VALID,0.380469,
2008-10-25, 00:33:04,VALID,1004.1,VALID,0,VALID,95.4526,VALID,0,VALID,24.3654,VALID,342,VALID,0.284375,
2008-10-25, 00:34:04,VALID,1004.08,VALID,0,VALID,95.4449,VALID,0.100563,VALID,24.3052,VALID,342,VALID,0.280078,
2008-10-25, 00:35:04,VALID,1004.1,VALID,0,VALID,95.5441,VALID,0.100563,VALID,24.3265,VALID,342,VALID,0.168359,
2008-10-25, 00:36:04,VALID,1004.12,VALID,0,VALID,95.628,VALID,0,VALID,24.3459,VALID,342,VALID,0.173047,
2008-10-25, 00:37:04,VALID,1004.1,VALID,0,VALID,95.628,VALID,0.100563,VALID,24.3867,VALID,342,VALID,0,
2008-10-25, 00:38:04,VALID,1004.13,VALID,0,VALID,95.6051,VALID,0,VALID,24.3459,VALID,342,VALID,0,
2008-10-25, 00:39:04,VALID,1004.15,VALID,0,VALID,95.5822,VALID,0,VALID,24.3459,VALID,342,VALID,0.0113281,
2008-10-25, 00:40:04,VALID,1004.17,VALID,0,VALID,95.5822,VALID,0,VALID,24.3052,VALID,342,VALID,0.176953,
2008-10-25, 00:41:04,VALID,1004.18,VALID,0,VALID,95.5594,VALID,0,VALID,24.3265,VALID,342,VALID,0.0117188,
2008-10-25, 00:42:04,VALID,1004.18,VALID,0,VALID,95.5594,VALID,0,VALID,24.2857,VALID,342,VALID,0.151562,
2008-10-25, 00:43:04,VALID,1004.18,VALID,0,VALID,95.5822,VALID,0,VALID,24.307,VALID,342,VALID,0.285156,
2008-10-25, 00:44:04,VALID,1004.18,VALID,0,VALID,95.6662,VALID,0,VALID,24.3459,VALID,342,VALID,0.273047,
2008-10-25, 00:45:04,VALID,1004.17,VALID,0,VALID,95.6509,VALID,0,VALID,24.3265,VALID,15,VALID,0.0617188,
2008-10-25, 00:46:04,VALID,1004.18,VALID,0,VALID,95.6814,VALID,0,VALID,24.3673,VALID,15,VALID,0.160938,
2008-10-25, 00:47:04,VALID,1004.16,VALID,0,VALID,95.628,VALID,0.100563,VALID,24.3459,VALID,15,VALID,0.217969,
2008-10-25, 00:48:04,VALID,1004.13,VALID,0,VALID,95.628,VALID,0,VALID,24.3265,VALID,15,VALID,0.226172,
2008-10-25, 00:49:04,VALID,1004.15,VALID,0,VALID,95.6051,VALID,0.100563,VALID,24.307,VALID,15,VALID,0.223047,
2008-10-25, 00:50:04,VALID,1004.14,VALID,0,VALID,95.4983,VALID,0.100563,VALID,24.2681,VALID,39,VALID,0.378906,
2008-10-25, 00:51:04,VALID,1004.13,VALID,0,VALID,95.5136,VALID,0,VALID,24.2097,VALID,43,VALID,0.159766,
2008-10-25, 00:52:04,VALID,1004.07,VALID,0,VALID,95.5212,VALID,0,VALID,24.1902,VALID,43,VALID,0,
2008-10-25, 00:53:04,VALID,1004.03,VALID,0,VALID,95.5365,VALID,0.100563,VALID,24.1902,VALID,43,VALID,0,
2008-10-25, 00:54:04,VALID,1004.01,VALID,0,VALID,95.628,VALID,0.100563,VALID,24.2097,VALID,43,VALID,0.169922,
2008-10-25, 00:55:04,VALID,1004,VALID,0,VALID,95.7043,VALID,0,VALID,24.2291,VALID,44,VALID,0.388672,
2008-10-25, 00:56:04,VALID,1003.99,VALID,0,VALID,95.7653,VALID,0.100563,VALID,24.2875,VALID,44,VALID,0.244922,
2008-10-25, 00:57:04,VALID,1003.96,VALID,0,VALID,95.8111,VALID,0.100563,VALID,24.3265,VALID,56,VALID,0.582031,
2008-10-25, 00:58:04,VALID,1003.96,VALID,0,VALID,95.8187,VALID,0,VALID,24.3654,VALID,66,VALID,0.508203,
2008-10-25, 00:59:04,VALID,1003.95,VALID,0,VALID,95.8645,VALID,0.100563,VALID,24.383,VALID,83,VALID,0.367969,
2008-10-25, 01:00:04,VALID,1003.94,VALID,0,VALID,95.834,VALID,0,VALID,24.4238,VALID,83,VALID,0.551172,
2008-10-25, 01:01:04,VALID,1003.89,VALID,0,VALID,95.773,VALID,0.100563,VALID,24.4433,VALID,83,VALID,0.0738281,
2008-10-25, 01:02:04,VALID,1003.89,VALID,0,VALID,95.7501,VALID,0.100563,VALID,24.4238,VALID,83,VALID,0,
2008-10-25, 01:03:04,VALID,1003.84,VALID,0,VALID,95.6967,VALID,0,VALID,24.4043,VALID,83,VALID,0,
2008-10-25, 01:04:04,VALID,1003.82,VALID,0,VALID,95.6967,VALID,0,VALID,24.383,VALID,83,VALID,0,
2008-10-25, 01:05:04,VALID,1003.83,VALID,0,VALID,95.7196,VALID,0.100563,VALID,24.4025,VALID,83,VALID,0,
2008-10-25, 01:06:04,VALID,1003.8,VALID,0,VALID,95.7501,VALID,0,VALID,24.4646,VALID,83,VALID,0,
2008-10-25, 01:07:04,VALID,1003.76,VALID,0,VALID,95.7806,VALID,0.100563,VALID,24.4628,VALID,83,VALID,0.234766,
2008-10-25, 01:08:04,VALID,1003.72,VALID,0,VALID,95.8035,VALID,0,VALID,24.4822,VALID,81,VALID,0.393359,
2008-10-25, 01:09:04,VALID,1003.7,VALID,0,VALID,95.7806,VALID,0,VALID,24.5017,VALID,81,VALID,0.260156,
2008-10-25, 01:10:04,VALID,1003.69,VALID,0,VALID,95.7577,VALID,0,VALID,24.4822,VALID,81,VALID,0.289844,
2008-10-25, 01:11:04,VALID,1003.68,VALID,0,VALID,95.7196,VALID,0.100563,VALID,24.4628,VALID,81,VALID,0.400781,
2008-10-25, 01:12:04,VALID,1003.65,VALID,0,VALID,95.7043,VALID,0.100563,VALID,24.4628,VALID,81,VALID,0.271484,
2008-10-25, 01:13:04,VALID,1003.64,VALID,0,VALID,95.6662,VALID,0,VALID,24.4433,VALID,70,VALID,0.444141,
2008-10-25, 01:14:04,VALID,1003.63,VALID,0,VALID,95.689,VALID,0.100563,VALID,24.4238,VALID,65,VALID,0.223438,
2008-10-25, 01:15:04,VALID,1003.59,VALID,0,VALID,95.689,VALID,0,VALID,24.4238,VALID,41,VALID,0.382422,
2008-10-25, 01:16:04,VALID,1003.58,VALID,0,VALID,95.7196,VALID,0,VALID,24.4238,VALID,41,VALID,0.255859,
2008-10-25, 01:17:04,VALID,1003.56,VALID,0,VALID,95.6509,VALID,0,VALID,24.3849,VALID,41,VALID,0.438281,
2008-10-25, 01:18:04,VALID,1003.54,VALID,0,VALID,95.628,VALID,0.100563,VALID,24.3849,VALID,41,VALID,0.488672,
2008-10-25, 01:19:04,VALID,1003.55,VALID,0,VALID,95.6814,VALID,0,VALID,24.3654,VALID,23,VALID,0.65625,
2008-10-25, 01:20:04,VALID,1003.52,VALID,0,VALID,95.6967,VALID,0,VALID,24.3654,VALID,12,VALID,0.589453,
2008-10-25, 01:21:04,VALID,1003.5,VALID,0,VALID,95.6738,VALID,0.100563,VALID,24.3246,VALID,9,VALID,0.485938,
2008-10-25, 01:22:04,VALID,1003.53,VALID,0,VALID,95.7272,VALID,0.100563,VALID,24.3265,VALID,351,VALID,0.614062,
2008-10-25, 01:23:04,VALID,1003.5,VALID,0,VALID,95.8035,VALID,0,VALID,24.3654,VALID,354,VALID,0.796875,
2008-10-25, 01:24:04,VALID,1003.48,VALID,0,VALID,95.8493,VALID,0,VALID,24.4062,VALID,345,VALID,0.628125,
2008-10-25, 01:25:04,VALID,1003.46,VALID,0,VALID,95.8645,VALID,0,VALID,24.4257,VALID,349,VALID,0.526953,
2008-10-25, 01:26:04,VALID,1003.45,VALID,0,VALID,95.834,VALID,0,VALID,24.4257,VALID,352,VALID,0.501953,
2008-10-25, 01:27:04,VALID,1003.43,VALID,0,VALID,95.7959,VALID,0,VALID,24.4451,VALID,352,VALID,0.455859,
2008-10-25, 01:28:04,VALID,1003.42,VALID,0,VALID,95.7959,VALID,0,VALID,24.4451,VALID,352,VALID,0.388281,
2008-10-25, 01:29:04,VALID,1003.45,VALID,0,VALID,95.7959,VALID,0,VALID,24.4433,VALID,351,VALID,0.389453,
2008-10-25, 01:30:04,VALID,1003.43,VALID,0,VALID,95.7348,VALID,0,VALID,24.4238,VALID,351,VALID,0.345313,
2008-10-25, 01:31:04,VALID,1003.46,VALID,0,VALID,95.6814,VALID,0,VALID,24.4043,VALID,351,VALID,0.458984,
2008-10-25, 01:32:04,VALID,1003.48,VALID,0,VALID,95.6356,VALID,0,VALID,24.3867,VALID,356,VALID,0.483203,
2008-10-25, 01:33:05,VALID,1003.5,VALID,0,VALID,95.5899,VALID,0,VALID,24.3283,VALID,356,VALID,0.521484,
2008-10-25, 01:34:05,VALID,1003.49,VALID,0,VALID,95.6051,VALID,0,VALID,24.2875,VALID,356,VALID,0.430078,
2008-10-25, 01:35:05,VALID,1003.47,VALID,0,VALID,95.5899,VALID,0,VALID,24.2699,VALID,356,VALID,0.271484,
2008-10-25, 01:36:05,VALID,1003.49,VALID,0,VALID,95.5746,VALID,0,VALID,24.2291,VALID,356,VALID,0.309375,
2008-10-25, 01:37:05,VALID,1003.5,VALID,0,VALID,95.5975,VALID,0,VALID,24.2097,VALID,356,VALID,0.426172,
2008-10-25, 01:38:05,VALID,1003.52,VALID,0,VALID,95.6051,VALID,0,VALID,24.2115,VALID,356,VALID,0.41875,
2008-10-25, 01:39:05,VALID,1003.52,VALID,0,VALID,95.6509,VALID,0,VALID,24.1902,VALID,356,VALID,0.307031,
2008-10-25, 01:40:05,VALID,1003.54,VALID,0,VALID,95.7043,VALID,0,VALID,24.1902,VALID,356,VALID,0.1625,
2008-10-25, 01:41:05,VALID,1003.54,VALID,0,VALID,95.6967,VALID,0,VALID,24.1902,VALID,356,VALID,0.255469,
2008-10-25, 01:42:05,VALID,1003.54,VALID,0,VALID,95.773,VALID,0,VALID,24.231,VALID,356,VALID,0.315625,
2008-10-25, 01:43:05,VALID,1003.53,VALID,0,VALID,95.7806,VALID,0,VALID,24.2486,VALID,356,VALID,0.233203,
2008-10-25, 01:44:05,VALID,1003.53,VALID,0,VALID,95.7043,VALID,0,VALID,24.2097,VALID,356,VALID,0.246875,
2008-10-25, 01:45:05,VALID,1003.48,VALID,0,VALID,95.6204,VALID,0,VALID,24.1707,VALID,356,VALID,0.201562,
2008-10-25, 01:46:05,VALID,1003.48,VALID,0,VALID,95.6509,VALID,0,VALID,24.1531,VALID,356,VALID,0.180859,
2008-10-25, 01:47:05,VALID,1003.48,VALID,0,VALID,95.689,VALID,0,VALID,24.1531,VALID,356,VALID,0.0121094,
2008-10-25, 01:48:05,VALID,1003.42,VALID,0,VALID,95.6662,VALID,0,VALID,24.1336,VALID,356,VALID,0,
2008-10-25, 01:49:05,VALID,1003.42,VALID,0,VALID,95.6509,VALID,0,VALID,24.0947,VALID,356,VALID,0,
2008-10-25, 01:50:05,VALID,1003.4,VALID,0,VALID,95.6738,VALID,0,VALID,24.1142,VALID,356,VALID,0,
2008-10-25, 01:51:05,VALID,1003.39,VALID,0,VALID,95.6738,VALID,0,VALID,24.0947,VALID,356,VALID,0,
2008-10-25, 01:52:05,VALID,1003.38,VALID,0,VALID,95.7196,VALID,0,VALID,24.0752,VALID,356,VALID,0,
2008-10-25, 01:53:05,VALID,1003.35,VALID,0,VALID,95.7882,VALID,0,VALID,24.0947,VALID,356,VALID,0,
2008-10-25, 01:54:05,VALID,1003.33,VALID,0,VALID,95.8493,VALID,0.100563,VALID,24.1318,VALID,356,VALID,0,
2008-10-25, 01:55:05,VALID,1003.3,VALID,0,VALID,95.834,VALID,0.100563,VALID,24.1513,VALID,356,VALID,0,
2008-10-25, 01:56:05,VALID,1003.3,VALID,0,VALID,95.8187,VALID,0,VALID,24.1513,VALID,356,VALID,0,
2008-10-25, 01:57:05,VALID,1003.31,VALID,0,VALID,95.8264,VALID,0.100563,VALID,24.1707,VALID,356,VALID,0,
2008-10-25, 01:58:05,VALID,1003.29,VALID,0,VALID,95.8493,VALID,0,VALID,24.2097,VALID,356,VALID,0,
2008-10-25, 01:59:05,VALID,1003.29,VALID,0,VALID,95.8493,VALID,0.100563,VALID,24.2097,VALID,356,VALID,0,
2008-10-25, 02:00:05,VALID,1003.26,VALID,0,VALID,95.8798,VALID,0.100563,VALID,24.2078,VALID,356,VALID,0.267188,
2008-10-25, 02:01:05,VALID,1003.33,VALID,0,VALID,95.9027,VALID,0.100563,VALID,24.2681,VALID,356,VALID,0.234375,
2008-10-25, 02:02:05,VALID,1003.34,VALID,0,VALID,95.8798,VALID,0.100563,VALID,24.2681,VALID,356,VALID,0.344531,
2008-10-25, 02:03:05,VALID,1003.36,VALID,0,VALID,95.7882,VALID,0.100563,VALID,24.2291,VALID,356,VALID,0.402734,
2008-10-25, 02:04:05,VALID,1003.35,VALID,0,VALID,95.7501,VALID,0,VALID,24.2115,VALID,356,VALID,0.404297,
2008-10-25, 02:05:05,VALID,1003.36,VALID,0,VALID,95.8111,VALID,0.100563,VALID,24.1884,VALID,8,VALID,0.626172,
2008-10-25, 02:06:05,VALID,1003.35,VALID,0,VALID,95.8569,VALID,0.100563,VALID,24.2291,VALID,8,VALID,0.495703,
2008-10-25, 02:07:05,VALID,1003.35,VALID,0,VALID,95.9332,VALID,0,VALID,24.2875,VALID,10,VALID,0.361328,
2008-10-25, 02:08:05,VALID,1003.31,VALID,0,VALID,95.7653,VALID,0,VALID,24.1902,VALID,10,VALID,0.435156,
2008-10-25, 02:09:05,VALID,1003.3,VALID,0,VALID,95.7424,VALID,0,VALID,24.1707,VALID,10,VALID,0.336719,
2008-10-25, 02:10:05,VALID,1003.3,VALID,0,VALID,95.7348,VALID,0.100563,VALID,24.1513,VALID,10,VALID,0.167187,
2008-10-25, 02:11:05,VALID,1003.28,VALID,0,VALID,95.7348,VALID,0.100563,VALID,24.1513,VALID,10,VALID,0.0613281,
2008-10-25, 02:12:05,VALID,1003.3,VALID,0,VALID,95.7501,VALID,0.100563,VALID,24.1318,VALID,10,VALID,0,
2008-10-25, 02:13:05,VALID,1003.33,VALID,0,VALID,95.834,VALID,0.100563,VALID,24.1513,VALID,10,VALID,0.0300781,
2008-10-25, 02:14:05,VALID,1003.32,VALID,0,VALID,95.9255,VALID,0.100563,VALID,24.1902,VALID,10,VALID,0.2,
2008-10-25, 02:15:05,VALID,1003.31,VALID,0,VALID,95.9179,VALID,0,VALID,24.2486,VALID,10,VALID,0.346875,
2008-10-25, 02:16:05,VALID,1003.29,VALID,0,VALID,95.895,VALID,0.100563,VALID,24.2273,VALID,10,VALID,0.326953,
2008-10-25, 02:17:05,VALID,1003.28,VALID,0,VALID,95.9332,VALID,0.100563,VALID,24.307,VALID,10,VALID,0.371094,
2008-10-25, 02:18:05,VALID,1003.24,VALID,0,VALID,95.9713,VALID,0.100563,VALID,24.3265,VALID,10,VALID,0.362109,
2008-10-25, 02:19:05,VALID,1003.23,VALID,0,VALID,95.9103,VALID,0,VALID,24.3459,VALID,10,VALID,0.280078,
2008-10-25, 02:20:05,VALID,1003.23,VALID,0,VALID,95.9255,VALID,0.100563,VALID,24.3246,VALID,10,VALID,0.173047,
2008-10-25, 02:21:05,VALID,1003.24,VALID,0,VALID,95.9179,VALID,0.100563,VALID,24.3441,VALID,10,VALID,0.264062,
2008-10-25, 02:22:05,VALID,1003.25,VALID,0,VALID,95.8721,VALID,0.100563,VALID,24.3246,VALID,10,VALID,0,
2008-10-25, 02:23:05,VALID,1003.26,VALID,0,VALID,95.834,VALID,0,VALID,24.3265,VALID,10,VALID,0.310156,
2008-10-25, 02:24:05,VALID,1003.28,VALID,0,VALID,95.834,VALID,0,VALID,24.3283,VALID,10,VALID,0.328516,
2008-10-25, 02:25:05,VALID,1003.28,VALID,0,VALID,95.8798,VALID,0,VALID,24.3478,VALID,10,VALID,0.151562,
2008-10-25, 02:26:05,VALID,1003.3,VALID,0,VALID,95.8569,VALID,0,VALID,24.3478,VALID,10,VALID,0,
2008-10-25, 02:27:05,VALID,1003.29,VALID,0,VALID,95.8187,VALID,0,VALID,24.3478,VALID,10,VALID,0,
2008-10-25, 02:28:05,VALID,1003.29,VALID,0,VALID,95.7882,VALID,0,VALID,24.3283,VALID,10,VALID,0,
2008-10-25, 02:29:05,VALID,1003.28,VALID,0,VALID,95.773,VALID,0,VALID,24.2894,VALID,10,VALID,0,
2008-10-25, 02:30:05,VALID,1003.26,VALID,0,VALID,95.773,VALID,0,VALID,24.2699,VALID,10,VALID,0,
2008-10-25, 02:31:05,VALID,1003.28,VALID,0,VALID,95.7806,VALID,0,VALID,24.2699,VALID,10,VALID,0,
2008-10-25, 02:32:05,VALID,1003.25,VALID,0,VALID,95.7959,VALID,0,VALID,24.2291,VALID,11,VALID,0.114844,
2008-10-25, 02:33:05,VALID,1003.21,VALID,0,VALID,95.8264,VALID,0,VALID,24.2291,VALID,12,VALID,0.128125,
2008-10-25, 02:34:05,VALID,1003.17,VALID,0,VALID,95.8187,VALID,0,VALID,24.2504,VALID,12,VALID,0,
2008-10-25, 02:35:05,VALID,1003.16,VALID,0,VALID,95.8035,VALID,0,VALID,24.231,VALID,12,VALID,0,
2008-10-25, 02:36:05,VALID,1003.13,VALID,0,VALID,95.7882,VALID,0,VALID,24.231,VALID,12,VALID,0,
2008-10-25, 02:37:05,VALID,1003.12,VALID,0,VALID,95.773,VALID,0,VALID,24.2097,VALID,12,VALID,0,
2008-10-25, 02:38:05,VALID,1003.09,VALID,0,VALID,95.7653,VALID,0,VALID,24.2115,VALID,12,VALID,0,
2008-10-25, 02:39:05,VALID,1003.07,VALID,0,VALID,95.773,VALID,0,VALID,24.2115,VALID,12,VALID,0,
2008-10-25, 02:40:05,VALID,1003.02,VALID,0,VALID,95.8264,VALID,0,VALID,24.2097,VALID,12,VALID,0,
2008-10-25, 02:41:05,VALID,1002.96,VALID,0,VALID,95.8187,VALID,0,VALID,24.231,VALID,12,VALID,0,
2008-10-25, 02:42:05,VALID,1002.94,VALID,0,VALID,95.8264,VALID,0,VALID,24.2115,VALID,12,VALID,0,
2008-10-25, 02:43:05,VALID,1002.93,VALID,0,VALID,95.8416,VALID,0,VALID,24.2097,VALID,12,VALID,0.169922,
2008-10-25, 02:44:05,VALID,1002.88,VALID,0,VALID,95.9103,VALID,0,VALID,24.2486,VALID,12,VALID,0.151172,
2008-10-25, 02:45:05,VALID,1002.87,VALID,0,VALID,95.9484,VALID,0,VALID,24.2681,VALID,12,VALID,0.273047,
2008-10-25, 02:46:05,VALID,1002.91,VALID,0,VALID,95.9484,VALID,0,VALID,24.2875,VALID,12,VALID,0.353125,
2008-10-25, 02:47:05,VALID,1002.89,VALID,0,VALID,95.9103,VALID,0,VALID,24.3107,VALID,12,VALID,0.352344,
2008-10-25, 02:48:05,VALID,1002.89,VALID,0,VALID,95.773,VALID,0,VALID,24.231,VALID,12,VALID,0.0949219,
2008-10-25, 02:49:05,VALID,1002.83,VALID,0,VALID,95.8111,VALID,0,VALID,24.231,VALID,12,VALID,0,
2008-10-25, 02:50:05,VALID,1002.83,VALID,0,VALID,95.8645,VALID,0,VALID,24.1902,VALID,12,VALID,0,
2008-10-25, 02:51:05,VALID,1002.83,VALID,0,VALID,95.9408,VALID,0,VALID,24.231,VALID,12,VALID,0,
2008-10-25, 02:52:05,VALID,1002.82,VALID,0,VALID,95.9408,VALID,0,VALID,24.2504,VALID,12,VALID,0,
2008-10-25, 02:53:05,VALID,1002.8,VALID,0,VALID,95.8187,VALID,0,VALID,24.2115,VALID,12,VALID,0,
2008-10-25, 02:54:05,VALID,1002.8,VALID,0,VALID,95.7653,VALID,0,VALID,24.1531,VALID,12,VALID,0.478906,
2008-10-25, 02:55:05,VALID,1002.8,VALID,0,VALID,95.8187,VALID,0,VALID,24.1531,VALID,12,VALID,0.413281,
2008-10-25, 02:56:05,VALID,1002.8,VALID,0,VALID,95.773,VALID,0,VALID,24.1336,VALID,12,VALID,0.358203,
2008-10-25, 02:57:05,VALID,1002.82,VALID,0,VALID,95.834,VALID,0,VALID,24.1336,VALID,12,VALID,0.0890625,
2008-10-25, 02:58:05,VALID,1002.83,VALID,0,VALID,95.7806,VALID,0,VALID,24.0734,VALID,12,VALID,0.0691406,
2008-10-25, 02:59:05,VALID,1002.83,VALID,0,VALID,95.8264,VALID,0,VALID,24.0947,VALID,12,VALID,0,
2008-10-25, 03:00:05,VALID,1002.83,VALID,0,VALID,95.8721,VALID,0,VALID,24.0929,VALID,12,VALID,0,
2008-10-25, 03:01:05,VALID,1002.81,VALID,0,VALID,95.895,VALID,0,VALID,24.1549,VALID,12,VALID,0.142969,
2008-10-25, 03:02:05,VALID,1002.8,VALID,0,VALID,95.9484,VALID,0,VALID,24.1744,VALID,12,VALID,0.100391,
2008-10-25, 03:03:05,VALID,1002.83,VALID,0,VALID,95.9789,VALID,0,VALID,24.192,VALID,12,VALID,0.207422,
2008-10-25, 03:04:05,VALID,1002.78,VALID,0,VALID,95.9942,VALID,0,VALID,24.2523,VALID,46,VALID,0.205469,
2008-10-25, 03:05:05,VALID,1002.77,VALID,0,VALID,95.9789,VALID,0,VALID,24.2097,VALID,46,VALID,0.182812,
2008-10-25, 03:06:05,VALID,1002.71,VALID,0,VALID,95.9561,VALID,0,VALID,24.231,VALID,46,VALID,0.287891,
2008-10-25, 03:07:05,VALID,1002.7,VALID,0,VALID,96.0171,VALID,0,VALID,24.2894,VALID,46,VALID,0.413672,
2008-10-25, 03:08:05,VALID,1002.68,VALID,0,VALID,96.0171,VALID,0,VALID,24.3283,VALID,74,VALID,0.608203,
2008-10-25, 03:09:05,VALID,1002.73,VALID,0,VALID,95.9942,VALID,0.100563,VALID,24.3265,VALID,119,VALID,1.42656,
2008-10-25, 03:10:05,VALID,1002.76,VALID,0,VALID,96.0171,VALID,0,VALID,24.4238,VALID,105,VALID,1.6543,
2008-10-25, 03:11:05,VALID,1002.69,VALID,0,VALID,96.0781,VALID,0.100563,VALID,24.5582,VALID,138,VALID,2.18789,
2008-10-25, 03:12:05,VALID,1002.73,VALID,0,VALID,96.101,VALID,0.100563,VALID,24.6166,VALID,112,VALID,1.22617,
2008-10-25, 03:13:05,VALID,1002.72,VALID,0,VALID,96.0476,VALID,0.100563,VALID,24.6769,VALID,98,VALID,1.83125,
2008-10-25, 03:14:05,VALID,1002.72,VALID,0,VALID,95.9179,VALID,0.100563,VALID,24.7548,VALID,112,VALID,2.48906,
2008-10-25, 03:15:05,VALID,1002.7,VALID,0,VALID,95.4983,VALID,0.100563,VALID,24.8522,VALID,93,VALID,1.40703,
2008-10-25, 03:16:05,VALID,1002.69,VALID,0,VALID,95.2084,VALID,0.100563,VALID,24.8697,VALID,76,VALID,1.89023,
2008-10-25, 03:17:05,VALID,1002.66,VALID,0,VALID,94.9796,VALID,0.100563,VALID,24.93,VALID,105,VALID,1.28711,
2008-10-25, 03:18:05,VALID,1002.63,VALID,0,VALID,94.7507,VALID,0.100563,VALID,24.9671,VALID,112,VALID,0.843359,
2008-10-25, 03:19:05,VALID,1002.62,VALID,0,VALID,94.5218,VALID,0.100563,VALID,24.9866,VALID,94,VALID,0.762109,
2008-10-25, 03:20:05,VALID,1002.54,VALID,0,VALID,94.3311,VALID,0.100563,VALID,24.9866,VALID,75,VALID,0.970312,
2008-10-25, 03:21:05,VALID,1002.55,VALID,0,VALID,94.2319,VALID,0.100563,VALID,24.9866,VALID,99,VALID,0.721875,
2008-10-25, 03:22:05,VALID,1002.54,VALID,0,VALID,94.087,VALID,0.100563,VALID,24.9671,VALID,84,VALID,1.12656,
2008-10-25, 03:23:05,VALID,1002.58,VALID,0,VALID,93.9878,VALID,0.100563,VALID,24.9885,VALID,49,VALID,0.803906,
2008-10-25, 03:24:05,VALID,1002.58,VALID,0,VALID,93.8963,VALID,0,VALID,24.9495,VALID,42,VALID,1.03359,
2008-10-25, 03:25:05,VALID,1002.58,VALID,0,VALID,93.8352,VALID,0,VALID,24.969,VALID,39,VALID,1.22148,
2008-10-25, 03:26:05,VALID,1002.58,VALID,0,VALID,93.7361,VALID,0,VALID,24.9495,VALID,36,VALID,1.17695,
2008-10-25, 03:27:05,VALID,1002.61,VALID,0,VALID,93.7208,VALID,0,VALID,24.9514,VALID,29,VALID,0.837109,
2008-10-25, 03:28:05,VALID,1002.58,VALID,0,VALID,93.7055,VALID,0,VALID,24.93,VALID,35,VALID,0.53125,
2008-10-25, 03:29:05,VALID,1002.55,VALID,0,VALID,93.7132,VALID,0,VALID,24.9514,VALID,36,VALID,1.3418,
2008-10-25, 03:30:05,VALID,1002.57,VALID,0,VALID,93.5835,VALID,0,VALID,24.9495,VALID,28,VALID,1.78555,
2008-10-25, 03:31:05,VALID,1002.53,VALID,0,VALID,93.4233,VALID,0,VALID,24.9904,VALID,25,VALID,2.12031,
2008-10-25, 03:32:05,VALID,1002.53,VALID,0,VALID,93.3775,VALID,0,VALID,25.0098,VALID,38,VALID,0.985156,
2008-10-25, 03:33:05,VALID,1002.53,VALID,0,VALID,93.3165,VALID,0,VALID,25.0312,VALID,30,VALID,1.45117,
2008-10-25, 03:34:05,VALID,1002.49,VALID,0,VALID,93.2097,VALID,0,VALID,25.0293,VALID,24,VALID,2.23945,
2008-10-25, 03:35:05,VALID,1002.47,VALID,0,VALID,93.1029,VALID,0,VALID,25.0663,VALID,56,VALID,1.18164,
2008-10-25, 03:36:05,VALID,1002.45,VALID,0,VALID,92.9274,VALID,0,VALID,25.1461,VALID,51,VALID,0.986719,
2008-10-25, 03:37:05,VALID,1002.47,VALID,0,VALID,92.7901,VALID,0,VALID,25.1656,VALID,40,VALID,0.733203,
2008-10-25, 03:38:05,VALID,1002.48,VALID,0,VALID,92.813,VALID,0,VALID,25.1248,VALID,21,VALID,0.536328,
2008-10-25, 03:39:05,VALID,1002.51,VALID,0,VALID,92.8358,VALID,0,VALID,25.1248,VALID,29,VALID,0.588281,
2008-10-25, 03:40:05,VALID,1002.49,VALID,0,VALID,92.9198,VALID,0,VALID,25.0858,VALID,23,VALID,0.980469,
2008-10-25, 03:41:05,VALID,1002.5,VALID,0,VALID,93.0037,VALID,0,VALID,25.1248,VALID,40,VALID,1.05195,
2008-10-25, 03:42:05,VALID,1002.53,VALID,0,VALID,92.9732,VALID,0,VALID,25.1442,VALID,57,VALID,1.44766,
2008-10-25, 03:43:05,VALID,1002.48,VALID,0,VALID,92.8206,VALID,0,VALID,25.224,VALID,87,VALID,1.04844,
2008-10-25, 03:44:05,VALID,1002.52,VALID,0,VALID,92.5688,VALID,0,VALID,25.3233,VALID,94,VALID,0.628906,
2008-10-25, 03:45:05,VALID,1002.52,VALID,0,VALID,92.4544,VALID,0,VALID,25.3,VALID,34,VALID,0.372266,